Karos, South Africa

1:44 AM SAST on January 22, 2017 (GMT +0200)
Upington

Weather History for FAUP - October, 2013

Change the Weather History Date:

Tuesday, October 22, 2013

  Actual Average Record
Temperature  
Mean Temperature 62 °F -  
Max Temperature 77 °F 87 °F 101 °F (2014)
Min Temperature 48 °F 59 °F 46 °F (1996)
Degree Days  
Heating Degree Days 2    
Growing Degree Days 12 (Base 50)    
Moisture  
Dew Point 36 °F    
Average Humidity 39    
Maximum Humidity 76    
Minimum Humidity 9    
Precipitation  
Precipitation 0.00 in 0.00 in - ()
Sea Level Pressure  
Sea Level Pressure 30.10 in    
Wind  
Wind Speed 6 mph ()    
Max Wind Speed 12 mph    
Max Gust Speed -    
Visibility 6.2 miles    
Events      
Averages and records for this station are not official NWS values.
T = Trace of Precipitation, MM = Missing Value Source: Averaged Metar Reports

Daily Weather History Graph

Daily Weather History Graph

Search for Another Location

Airport or City:

Trip Planner

Search our weather history database for the weather conditions in past years. The results will help you decide how hot, cold, wet, or windy it might be!

Date:

Astronomy

Oct. 22, 2013 Rise Set
Actual Time 5:51 AM SAST 6:47 PM SAST
Civil Twilight 5:26 AM SAST 7:12 PM SAST
Nautical Twilight 4:58 AM SAST 7:40 PM SAST
Astronomical Twilight 4:28 AM SAST 8:10 PM SAST
Moon 10:06 PM SAST (10/22) 8:11 AM SAST (10/22)
Length of Visible Light 13h 45m
Length of Day
12h 56m
Waning Gibbous, 88% of the Moon is Illuminated
Oct 22
Waning Gibbous
Oct 27
Last Quarter
Nov 3
New
Nov 10
First Quarter
Nov 17
Full

Hourly Weather History & Observations

Time (SAST) Temp. Dew Point Humidity Pressure Visibility Wind Dir Wind Speed Gust Speed Precip Events Conditions
12:00 AM 53.6 °F 42.8 °F 67% 30.09 in - South 6.9 mph - N/A   Unknown
1:00 AM 53.6 °F 41.0 °F 62% 30.09 in - South 6.9 mph - N/A   Clear
2:00 AM 54 °F 41 °F 50%  in 25 mi SSE 8.1 mph - -  
2:00 AM 53.6 °F 39.2 °F 58% 30.09 in - SSE 6.9 mph - N/A   Clear
3:00 AM 51.8 °F 39.2 °F 62% 30.09 in - SSE 6.9 mph - N/A   Clear
4:00 AM 50.0 °F 39.2 °F 66% 30.09 in - South 4.6 mph - N/A   Clear
5:00 AM 49 °F 41 °F 64%  in 25 mi Calm Calm - -  
5:00 AM 48.2 °F 39.2 °F 71% 30.09 in - Calm Calm - N/A   Clear
6:00 AM 48.2 °F 41.0 °F 76% 30.12 in - SSE 2.3 mph - N/A   Clear
7:00 AM 53.6 °F 41.0 °F 62% 30.12 in - South 2.3 mph - N/A   Clear
8:00 AM 60 °F 42 °F 41%  in 25 mi SE 11.5 mph - -  
8:00 AM 59.0 °F 41.0 °F 51% 30.15 in - SE 10.4 mph - N/A   Clear
9:00 AM 62.6 °F 39.2 °F 42% 30.15 in - ESE 11.5 mph - N/A   Clear
9:44 AM 66.2 °F 37.4 °F 35% 30.15 in - ESE 8.1 mph - N/A   Clear
10:00 AM 66.2 °F 37.4 °F 35% 30.15 in 6.2 mi SE 8.1 mph - N/A   Partly Cloudy
11:00 AM 70 °F 35 °F 17%  in 25 mi SSE 10.4 mph - -   Scattered Clouds
11:00 AM 69.8 °F 33.8 °F 27% 30.15 in 6.2 mi SSE 9.2 mph - N/A   Partly Cloudy
12:00 PM 69.8 °F 33.8 °F 27% 30.12 in 6.2 mi SE 8.1 mph - N/A   Partly Cloudy
1:00 PM 71.6 °F 32.0 °F 23% 30.09 in 6.2 mi South 4.6 mph - N/A   Partly Cloudy
2:00 PM 74 °F 32 °F 12%  in 25 mi South 9.2 mph - -  
2:00 PM 73.4 °F 32.0 °F 22% 30.09 in - South 8.1 mph - N/A   Clear
3:00 PM 75.2 °F 32.0 °F 21% 30.06 in - SSW 8.1 mph - N/A   Clear
4:00 PM 75.2 °F 32.0 °F 21% 30.04 in 6.2 mi SSE 9.2 mph - N/A   Partly Cloudy
5:00 PM 76 °F 28 °F 9%  in 25 mi SSW 8.1 mph - -   Clear
5:00 PM 75.2 °F 28.4 °F 18% 30.04 in - SSW 8.1 mph - N/A   Clear
6:00 PM 73.4 °F 28.4 °F 19% 30.04 in - South 9.2 mph - N/A   Clear
7:00 PM 68.0 °F 28.4 °F 23% 30.06 in - SW 6.9 mph - N/A   Clear
8:00 PM 66 °F 31 °F 16%  in 25 mi SSW 3.5 mph - -   Clear
8:00 PM 66.2 °F 32.0 °F 28% 30.09 in - SSW 3.5 mph - N/A   Clear
9:00 PM 62.6 °F 32.0 °F 32% 30.09 in - WSW 2.3 mph - N/A   Unknown
10:00 PM 57.2 °F 35.6 °F 44% 30.09 in - North 1.2 mph - N/A   Unknown
11:00 PM 57 °F 35 °F 31%  in - WNW 5.8 mph - -  
11:00 PM 55.4 °F 33.8 °F 44% 30.09 in - WNW 5.8 mph - N/A   Unknown